Mount Ida, AR

5:29 PM CDT on June 23, 2017 (GMT -0500)
Mount Ida

Weather History for KMWT - October, 2014

Change the Weather History Date:

Tuesday, October 14, 2014

  Actual Average (KHOT) Record (KHOT)
Temperature  
Mean Temperature 60 °F -  
Max Temperature 70 °F 76 °F 95 °F (1963)
Min Temperature 50 °F 51 °F 32 °F (1977)
Degree Days  
Heating Degree Days 5    
Growing Degree Days 10 (Base 50)    
Moisture  
Dew Point 46 °F    
Average Humidity 65    
Maximum Humidity 86    
Minimum Humidity 35    
Precipitation  
Precipitation 0.00 in - - ()
Sea Level Pressure  
Sea Level Pressure 29.84 in    
Wind  
Wind Speed 6 mph (NW)    
Max Wind Speed 14 mph    
Max Gust Speed 26 mph    
Averages and records for this station are not official NWS values.
T = Trace of Precipitation, MM = Missing Value Source: NWS Daily Summary

Daily Weather History Graph

Daily Weather History Graph

Search for Another Location

Airport or City:

Trip Planner

Search our weather history database for the weather conditions in past years. The results will help you decide how hot, cold, wet, or windy it might be!

Date:

Astronomy

Oct. 14, 2014 Rise Set
Actual Time 7:19 AM CDT 6:40 PM CDT
Civil Twilight 6:53 AM CDT 7:06 PM CDT
Nautical Twilight 6:24 AM CDT 7:35 PM CDT
Astronomical Twilight 5:55 AM CDT 8:04 PM CDT
Moon 11:54 PM CDT (10/14) 1:13 PM CDT (10/14)
Length of Visible Light 12h 12m
Length of Day
11h 21m
Waning Gibbous, 61% of the Moon is Illuminated
Oct 14
Waning Gibbous
Oct 15
Last Quarter
Oct 23
New
Oct 30
First Quarter
Nov 6
Full

Hourly Weather History & Observations

Time (CDT) Temp. Dew Point Humidity Pressure Visibility Wind Dir Wind Speed Gust Speed Precip Events Conditions
12:53 AM 57.0 °F 52.0 °F 83% 29.72 in - NW 8.1 mph - N/A   Overcast
1:53 AM 57.0 °F 51.1 °F 81% 29.73 in - Variable 5.8 mph - N/A   Overcast
2:46 AM 57.0 °F 50.0 °F 77% 29.73 in - Variable 6.9 mph - N/A   Mostly Cloudy
2:53 AM 57.0 °F 50.0 °F 77% 29.73 in - Variable 5.8 mph - N/A   Mostly Cloudy
3:53 AM 55.9 °F 48.0 °F 75% 29.73 in - Variable 5.8 mph - N/A   Clear
4:53 AM 55.9 °F 48.0 °F 75% 29.73 in - Variable 3.5 mph - N/A   Clear
5:53 AM 55.9 °F 46.0 °F 69% 29.76 in - Variable 5.8 mph - N/A   Scattered Clouds
6:53 AM 55.9 °F 46.0 °F 69% 29.78 in - NW 6.9 mph - N/A   Overcast
7:53 AM 55.9 °F 45.0 °F 67% 29.80 in - NW 6.9 mph - N/A   Mostly Cloudy
8:53 AM 55.9 °F 45.0 °F 67% 29.83 in - NW 8.1 mph - N/A   Overcast
9:53 AM 57.9 °F 46.0 °F 65% 29.84 in - Variable 3.5 mph 18.4 mph N/A   Clear
10:53 AM 61.0 °F 46.0 °F 58% 29.85 in - West 9.2 mph - N/A   Partly Cloudy
11:53 AM 63.0 °F 46.0 °F 54% 29.85 in - NW 8.1 mph 23.0 mph N/A   Partly Cloudy
12:53 PM 66.0 °F 46.0 °F 48% 29.85 in - Variable 6.9 mph 20.7 mph N/A   Clear
1:53 PM 68.0 °F 46.9 °F 47% 29.85 in - NW 9.2 mph 23.0 mph N/A   Scattered Clouds
2:53 PM 69.1 °F 44.1 °F 40% 29.85 in - NNW 10.4 mph 26.5 mph N/A   Clear
3:53 PM 69.1 °F 43.0 °F 39% 29.85 in - WNW 13.8 mph 23.0 mph N/A   Clear
4:53 PM 69.1 °F 39.9 °F 35% 29.86 in - NW 10.4 mph 20.7 mph N/A   Clear
5:53 PM 66.9 °F 43.0 °F 42% 29.88 in - Variable 5.8 mph - N/A   Clear
6:53 PM 60.1 °F 46.9 °F 62% 29.91 in - NW 3.5 mph - N/A   Clear
7:53 PM 55.0 °F 46.9 °F 74% 29.93 in - Calm Calm - N/A   Clear
8:53 PM 55.0 °F 45.0 °F 69% 29.94 in - Variable 3.5 mph - N/A   Clear
9:53 PM 54.0 °F 45.0 °F 72% 29.96 in - Calm Calm - N/A   Clear
10:53 PM 51.1 °F 46.0 °F 83% 29.96 in - Calm Calm - N/A   Clear
11:53 PM 50.0 °F 46.0 °F 86% 29.96 in - WNW 3.5 mph - N/A   Clear